Location: Omaha
(41.2590°N, 95.9380°W)
Time: 19:07:03
(UTC-05:00)

Tiangong 2 - Pass Details

Date: 10 October 2017
Orbit: 388 x 391 km, 42.8° (Epoch: 23 October)

Event Time Altitude Azimuth Distance (km) Brightness Sun altitude
Exits shadow 06:05:56 37° 216° (SW) 622 1.7 -16.6°
Maximum altitude 06:06:53 55° 159° (SSE) 472 1.5 -16.5°
Drops below altitude 10° 06:10:02 10° 80° (E) 1,423 5.3 -15.9°
Sets 06:12:08 0° 76° (ENE) 2,281 6.7 -15.5°
